Location: Newark
(50.0306°N, 2.3272°E)
Time: 15:08:10
(UTC+00:00)

Transit 2A Rocket - Pass Details

Date: 09 December 2019
Orbit: 593 x 910 km, 66.7° (Epoch: 27 January)

Event Time Altitude Azimuth Distance (km) Brightness Sun altitude
Rises 15:15:35 0° 163° (SSE) 2,966 8.4 3.3°
Reaches altitude 10° 15:19:00 10° 137° (SE) 2,006 7.2 2.9°
Maximum altitude 15:21:09 13° 108° (ESE) 1,767 6.6 2.6°
Drops below altitude 10° 15:23:15 10° 79° (E) 1,962 6.6 2.4°
Sets 15:26:31 0° 53° (NE) 2,847 7.2 2.0°
